[Date Prev][Date Next][Thread Prev][Thread Next] - [Date Index][Thread Index][Author Index]

2 Line ISS Keps 9-9



ISS
1 25544U 98067A   03252.04360957  .00015296  00000-0  17586-3 0  4736
2 25544  51.6320 317.9206 0005937 222.7239 215.5780 15.62217923274108


----
Via the sarex mailing list at AMSAT.ORG courtesy of AMSAT-NA.
To unsubscribe, send "unsubscribe sarex" to Majordomo@amsat.org



AMSAT Top AMSAT Home